Regional Weather Roundup
Issued by NWS Mobile, AL

Home | Current Version | Previous Version | Text Only | Print | Product List | Glossary On
Versions: 1 2 3 4 5 6 7 8 9 10 11 12 13 14 15 16 17 18 19 20 21 22 23 24 25 26 27
000
ASUS44 KMOB 012112
RWRMOB
REGIONAL WEATHER ROUNDUP
NATIONAL WEATHER SERVICE MOBILE AL
400 PM CDT SUN MAY 01 2016

NOTE: "FAIR" INDICATES FEW OR NO CLOUDS BELOW 12,000 FEET WITH NO
      SIGNIFICANT WEATHER AND/OR OBSTRUCTIONS TO VISIBILITY.

  * THESE STATIONS ARE PART OF THE UNIVERSITY OF SOUTH ALABAMA
    MESONET AND ARE NOT UNDER NWS OR FAA QUALITY CONTROL.

ALZ061>064-012200-
COASTAL ALABAMA

CITY           SKY/WX    TMP DP  RH WIND       PRES   REMARKS
MOBILE REG APT LGT RAIN  75  75 100 CALM      30.03F
BROOKLEY FIELD LGT RAIN  76  75  97 CALM      30.03S
USA CAMPUS*    NOT AVBL
DOG RIVER*     NOT AVBL


CITY           SKY/WX    TMP DP  RH WIND       PRES   REMARKS
MOUNT VERNON*  NOT AVBL
SARALAND*      NOT AVBL
BAY MINETTE*   NOT AVBL
LOXLEY*        NOT AVBL
ROBERTSDALE*   NOT AVBL
FAIRHOPE*      NOT AVBL
ELBERTA*       NOT AVBL
FOLEY*         NOT AVBL
GRAND BAY*     NOT AVBL
DAUPHIN ISLND* NOT AVBL
BON SCOUR NWR* NOT AVBL
GULF SHORES    CLOUDY    79  73  84 SE5       30.00F

$$

ALZ051>060-012200-
INTERIOR SOUTHWEST AND SOUTH CENTRAL ALABAMA

CITY           SKY/WX    TMP DP  RH WIND       PRES   REMARKS
GREENVILLE     CLOUDY    82  68  62 W9        29.98S
EVERGREEN      CLOUDY    80  69  69 W5        30.00S
CASTLEBERRY*   NOT AVBL
ATMORE*        NOT AVBL
DIXIE*         NOT AVBL
ANDALUSIA/OPP  PTSUNNY   87  67  51 SW7       29.98S
ANDALUSIA*     NOT AVBL
FLORALA APT    CLOUDY    82  67  60 S9        30.00S HAZE
FLORALA*       NOT AVBL

$$

FLZ001>006-012200-
WESTERN FLORIDA PANHANDLE

CITY           SKY/WX    TMP DP  RH WIND       PRES   REMARKS
PENSACOLA      CLOUDY    79  72  79 SE9       30.00F
NAS PENSACOLA  CLOUDY    78  72  81 SE6       30.00F
MILTON         LGT RAIN  81  71  71 S14       30.00S
WHTNG S FIELD  CLOUDY    83  72  69 S10       30.00S


CITY           SKY/WX    TMP DP  RH WIND       PRES   REMARKS
WALNUT HILL*   NOT AVBL
JAY*           NOT AVBL
DUKE FIELD     CLOUDY    83  70  63 S15       29.99S
CRESTVIEW      PTSUNNY   84  68  58 S10G17    30.01S
VALPARAISO     PTSUNNY   81  72  74 S10       30.00S
DESTIN         CLOUDY    81  74  79 SE9       30.01S

$$

MSZ076-079-012200-
INTERIOR SOUTHEAST MISSISSIPPI

CITY           SKY/WX    TMP DP  RH WIND       PRES   REMARKS
LEAKESVILLE*   NOT AVBL
AGRICOLA*      NOT AVBL

$$

MARINE OBSERVATIONS

STATION/POSITION TIME  TEMP    WIND        PRES    WAVE
                       AIR SEA DIR/SP/G            HT/PER
                 (UTC) (F)     (DEG/KT/KT) (MB)    (FT/S)
PASCAGOULA       2000   76      CALM  /  1 1016.2R
PETIT BOIS ISLND 2000   77      40/  1/  2 1016.9R
GRAND BAY        1900   77     160/  4     1018.0R
KATRINA CUT      2000   76     230/  1       N/A
CEDAR POINT      2000   77     180/  3     1016.3R
E DAUPHIN ISLAND 2100   77      70/  3/  3 1015.7F
MIDDLE BAY LIGHT 2000   77     160/  3     1016.6R
USCG MOBILE BAY  2000   77 76  190/  4/  6 1017.1R
STATE DOCKS      2000   79 73              1016.4R
MEAHER PARK      2000   77     230/  7     1015.6R
WEEKS BAY        1900   80                   N/A
FORT MORGAN      2000   77     110/  3/  4 1015.9R
12 S ORANGE BCH  2050   76 76   50/  6/  8 1015.3R   4/ 7
PENSACOLA BAY    2000   88 70  120/  2/  3 1016.5R
64 S DAUPHIN ISL 2000   77 76  110/  6/  8 1014.9R

$$

SELECTED LOCATIONS ACROSS THE REGION

CITY           SKY/WX    TMP DP  RH WIND       PRES   REMARKS
NEW ORLEANS    TSTM      71  68  90 S12       29.96F FOG
GULFPORT       LGT RAIN  70  66  87 S12       29.97F
PASCAGOULA AP  LGT RAIN  76  75  97 CALM      30.01S FOG
PASCAGOULA*    NOT AVBL
HATTIESBURG    CLOUDY    73  66  78 S13       29.95R
LAUREL         CLOUDY    72  64  78 SE7       29.96R
MERIDIAN       PTSUNNY   72  68  87 CALM      29.96F
JACKSON        PTSUNNY   79  68  69 SE14G23   29.93S
MONTGOMERY     CLOUDY    82  69  64 W7        30.00R
TROY           CLOUDY    85  66  53 S8        29.98F
KINSTON*       NOT AVBL
GENEVA*        NOT AVBL
ASHFORD*       NOT AVBL
DOTHAN         PTSUNNY   86  62  44 SW12      30.01F
PANAMA CITY    MOSUNNY   82  68  62 S13       29.99S

$$





USA.gov is the U.S. government's official web portal to all federal, state and local government web resources and services.